VE3DVC Weather Reports


Display with metric or nautical units.
time (UTC)temp
F
wind
direction
speed
MPH
gust
MPH
rain 1hr
in
rain 24hr
in
rain mn
in
humidity
%
barometer
mb
20260903154904 75 0 0.0 0.0 0.00 0.00 0.00 90 1014.2
20260903153704 74 0 0.0 1.0 0.00 0.00 0.00 90 1014.1
20260903152505 74 0 0.0 1.0 0.00 0.00 0.00 90 1014.2
20260903151305 74 0 0.0 1.0 0.00 0.00 0.00 90 1014.2
20260903150104 74 0 0.0 0.0 0.00 0.00 0.00 90 1014.3
20260903144904 73 0 0.0 1.0 0.00 0.00 0.00 90 1014.3
20260903143704 73 0 0.0 0.0 0.00 0.00 0.00 91 1014.5
20260903142504 72 0 0.0 0.0 0.00 0.00 0.00 90 1014.5
20260903141304 72 0 0.0 0.0 0.00 0.00 0.00 91 1014.5
20260903140104 72 0 0.0 0.0 0.00 0.00 0.00 90 1014.3
20260903134904 72 0 0.0 0.0 0.00 0.00 0.00 91 1014.4
20260903133705 71 0 0.0 0.0 0.00 0.00 0.00 91 1014.6
20260903132504 71 0 0.0 0.0 0.00 0.00 0.00 91 1014.6
20260903131305 70 0 0.0 0.0 0.00 0.00 0.00 91 1014.8
20260903130104 70 0 0.0 0.0 0.00 0.00 0.00 91 1014.8
20260903124904 70 0 0.0 0.0 0.00 0.00 0.00 91 1014.7
20260903123705 69 0 0.0 0.0 0.00 0.00 0.00 91 1014.8
20260903122504 68 0 0.0 0.0 0.00 0.00 0.00 91 1014.7
20260903121305 68 0 0.0 0.0 0.00 0.00 0.00 91 1014.8
20260903120105 68 0 0.0 0.0 0.00 0.00 0.00 91 1014.6
20260903114904 68 0 0.0 0.0 0.00 0.00 0.00 91 1014.6
20260903113615 68 0 0.0 0.0 0.00 0.00 0.00 91 1014.4
20260903111335 68 0 0.0 0.0 0.00 0.00 0.00 91 1014.2
20260903110135 68 0 0.0 0.0 0.00 0.00 0.00 91 1014.0
20260903104935 68 0 0.0 0.0 0.00 0.00 0.00 91 1014.1
20260903103132 68 0 0.0 0.0 0.00 0.00 0.00 91 1014.0
20260903101933 68 0 0.0 0.0 0.00 0.00 0.00 91 1014.2
20260903093802 68 0 0.0 0.0 0.00 0.00 0.00 91 1013.7
20260903092602 68 0 0.0 0.0 0.00 0.00 0.00 91 1013.3
20260903091402 69 0 0.0 0.0 0.00 0.00 0.00 91 1013.4
20260903090202 69 0 0.0 0.0 0.00 0.00 0.00 91 1013.3
20260903085002 69 0 0.0 0.0 0.00 0.00 0.00 91 1013.1
20260903083802 69 0 0.0 0.0 0.00 0.00 0.00 91 1013.0
20260903082602 69 0 0.0 0.0 0.00 0.00 0.00 91 1013.0
20260903081402 69 0 0.0 0.0 0.00 0.00 0.00 91 1013.3
20260903080202 69 0 0.0 0.0 0.00 0.00 0.00 91 1013.6
20260903075002 69 0 0.0 0.0 0.00 0.00 0.00 91 1013.5
20260903065743 69 0 0.0 0.0 0.00 0.00 0.00 91 1013.3
20260903064543 69 0 0.0 0.0 0.00 0.00 0.00 91 1013.2
20260903063343 70 0 0.0 0.0 0.00 0.00 0.00 91 1013.3
20260903062142 70 0 0.0 0.0 0.00 0.00 0.00 91 1013.4
20260903060943 70 0 0.0 0.0 0.00 0.00 0.00 91 1013.5
20260903055743 70 0 0.0 0.0 0.00 0.00 0.00 91 1013.6
20260903054543 70 0 0.0 0.0 0.00 0.00 0.00 91 1013.6
20260903053343 70 0 0.0 0.0 0.00 0.00 0.00 91 1013.3
20260903052143 70 0 0.0 0.0 0.00 0.00 0.00 91 1013.1
20260903050943 70 0 0.0 0.0 0.00 0.00 0.00 91 1013.0
20260903045743 70 0 0.0 1.0 0.00 0.00 0.00 91 1013.5
20260903044542 70 0 0.0 1.0 0.00 0.00 0.00 91 1013.8
20260903043343 70 0 0.0 0.0 0.00 0.00 0.00 91 1013.8
20260903042143 70 0 0.0 0.0 0.00 0.00 0.00 91 1013.8
20260903040943 70 0 0.0 0.0 0.00 0.00 0.00 91 1013.4
20260903035743 70 0 0.0 0.0 0.00 0.00 0.00 91 1012.7
20260903034543 70 0 0.0 0.0 0.00 0.00 0.00 91 1012.4
20260903033342 70 0 0.0 0.0 0.00 0.00 0.00 91 1012.6
20260903032143 70 0 0.0 0.0 0.00 0.00 0.00 91 1013.0
20260903030943 70 0 0.0 0.0 0.00 0.00 0.00 91 1013.0
20260903025130 70 0 0.0 0.0 0.00 0.00 0.00 91 1013.0
20260903023930 70 0 0.0 0.0 0.00 0.00 0.00 91 1012.9
20260903022730 70 0 0.0 1.0 0.00 0.00 0.00 91 1013.1
20260903021531 70 0 0.0 1.0 0.00 0.00 0.00 91 1013.4
20260903020330 70 0 0.0 0.0 0.00 0.00 0.00 91 1013.3
20260903012215 70 0 0.0 0.0 0.00 0.00 0.00 91 1013.6
20260903011015 70 0 0.0 0.0 0.00 0.00 0.00 91 1013.1
20260903005815 70 0 0.0 0.0 0.00 0.00 0.00 92 1013.7
20260903004615 70 0 0.0 0.0 0.00 0.00 0.00 92 1013.4
20260902235646 69 0 0.0 1.0 0.00 0.00 0.00 92 1013.7
20260902234445 68 0 0.0 0.0 0.00 0.00 0.00 92 1013.7
20260902233245 68 0 0.0 0.0 0.00 0.00 0.00 92 1013.5
20260902232045 69 0 0.0 2.0 0.00 0.00 0.00 91 1013.3
20260902224005 76 0 0.0 5.0 0.00 0.00 0.00 78 1014.0
20260902222805 79 318 1.0 5.0 0.00 0.00 0.00 83 1014.2
20260902221605 80 0 0.0 2.0 0.00 0.00 0.00 88 1013.2
20260902220405 80 0 0.0 2.0 0.00 0.00 0.00 87 1013.2
20260902215205 80 0 0.0 3.0 0.00 0.00 0.00 88 1012.5
20260902214005 80 0 0.0 3.0 0.00 0.00 0.00 88 1011.7
20260902205519 81 0 0.0 4.0 0.00 0.00 0.00 88 1012.2
20260902204319 81 0 0.0 3.0 0.00 0.00 0.00 88 1012.6
20260902200256 84 0 0.0 3.0 0.00 0.00 0.00 85 1013.6
20260902195057 84 0 0.0 5.0 0.00 0.00 0.00 84 1014.0
20260902193857 85 0 0.0 2.0 0.00 0.00 0.00 83 1014.2
20260902192657 85 0 0.0 1.0 0.00 0.00 0.00 84 1014.2
20260902191457 85 0 0.0 4.0 0.00 0.00 0.00 84 1014.0
20260902190257 85 0 0.0 3.0 0.00 0.00 0.00 84 1014.2
20260902185057 85 0 0.0 2.0 0.00 0.00 0.00 87 1013.9
20260902183857 84 0 0.0 2.0 0.00 0.00 0.00 87 1014.0
20260902182657 84 0 0.0 2.0 0.00 0.00 0.00 88 1013.9
20260902181457 83 0 0.0 6.0 0.00 0.00 0.00 89 1014.1
20260902175116 82 314 1.0 6.0 0.00 0.00 0.00 89 1013.9
20260902173915 81 0 0.0 2.0 0.00 0.00 0.00 90 1014.4
20260902172716 81 0 0.0 5.0 0.00 0.00 0.00 90 1014.6
20260902171515 80 0 0.0 3.0 0.00 0.00 0.00 91 1014.7
20260902170315 79 0 0.0 4.0 0.00 0.00 0.00 92 1014.9
20260902165115 79 0 0.0 4.0 0.00 0.00 0.00 92 1015.1
20260902163330 77 0 0.0 4.0 0.00 0.00 0.00 92 1015.2
20260902162130 77 0 0.0 3.0 0.00 0.00 0.00 91 1015.2
20260902160930 76 0 0.0 3.0 0.00 0.00 0.00 90 1015.4
20260902155731 76 0 0.0 5.0 0.00 0.00 0.00 90 1015.4